Regional Weather Roundup
Issued by NWS

Home | Current Version | Previous Version | Text Only | Print | Product List | Glossary On
Versions: 1 2 3 4 5 6 7 8 9 10 11 12 13 14 15 16 17 18 19 20 21 22 23 24 25 26 27 28 29 30 31 32 33 34 35 36 37 38 39 40 41 42 43 44 45 46 47 48 49 50
000
ASUS45 KTFX 050010
RWRMT
MONTANA REGIONAL WEATHER ROUNDUP
NATIONAL WEATHER SERVICE GREAT FALLS MT
600 PM MDT FRI SEP 04 2015

NOTE: "FAIR" INDICATES FEW OR NO CLOUDS BELOW 12000 FEET WITH NO
SIGNIFICANT WEATHER AND/OR OBSTRUCTIONS TO VISIBILITY.

MTZ001>007-043-050100-
WEST OF THE DIVIDE

CITY           SKY/WX    TMP DP  RH WIND       PRES   REMARKS
KALISPELL      CLOUDY    61  40  45 NE16      29.92S
MISSOULA       SUNNY     61  42  49 SE16      29.89F
BUTTE          CLOUDY    48  43  82 CALM      29.97F
MULLAN PASS    MOSUNNY   51  33  50 CALM      29.92F
DEER LODGE       N/A     52  45  76 CALM      29.99F
EUREKA           N/A     63  41  45 W10       29.94F
HAMILTON         N/A     61  43  51 N10       29.85F
LIBBY            N/A     64  36  34 CALM      29.90S
$$

MTZ008-052>055-050100-
SOUTHWEST MONTANA

CITY           SKY/WX    TMP DP  RH WIND       PRES   REMARKS
BOZEMAN        LGT RAIN  57  49  74 SW8       29.94R
DILLON         CLOUDY    56  42  59 NE16      29.91F
W YELLOWSTONE  MOSUNNY   66  34  30 SW8       29.91R
$$

MTZ009-010-012-014-046-048-049-054-050100-
EAST SLOPES AND CENTRAL MONTANA

CITY           SKY/WX    TMP DP  RH WIND       PRES   REMARKS
CUT BANK       CLOUDY    45  44  97 N15       30.04S
GREAT FALLS    CLOUDY    51  49  92 N9        30.00S
MALMSTROM AFB  PTSUNNY   50  49  95 N8        30.00F
HELENA         CLOUDY    54  46  74 W9        29.96F
CONRAD           N/A     50  50 100 W8        30.06R
$$

MTZ011-013-016-021-045-047-050-051-050100-
NORTH CENTRAL MONTANA

CITY           SKY/WX    TMP DP  RH WIND       PRES   REMARKS
HAVRE          CLOUDY    55  52  89 NE9       30.02F
LEWISTOWN      CLOUDY    57  45  64 N14       29.99S
N BAR RANCH    CLOUDY    55  45  67 N13G20    30.01R
CHINOOK          N/A     55  50  82 N5        30.03R
FORT BENTON      N/A     54  48  82 N5        30.02R
$$

MTZ017>020-022>027-061-062-050100-
NORTHEAST MONTANA

CITY           SKY/WX    TMP DP  RH WIND       PRES   REMARKS
GLASGOW        CLOUDY    69  53  56 N15       29.88R
JORDAN           N/A     72  51  47 N8        29.87S
SIDNEY         CLOUDY    73  57  56 N10         N/A
WOLF POINT     SUNNY     73  52  47 NE13G22   29.87R
MALTA            N/A     56  47  71 N16       29.94R
PLENTYWOOD       N/A     66  48  52 NE17G24   29.90S
POPLAR           N/A     72  52  49 N13G21    29.87R
$$

MTZ028>42-056>058-050100-
SOUTHCENTRAL AND SOUTHEAST MONTANA

CITY           SKY/WX    TMP DP  RH WIND       PRES   REMARKS
BAKER          SUNNY     77  60  55 NE14      29.85S
BILLINGS       MOSUNNY   68  44  42 NE14      29.91R
LIVINGSTON     PTSUNNY   62  46  55 E14G22    29.95R
MILES CITY     MOSUNNY   74  56  53 NE14      29.84R
EKALAKA          N/A     81  56  42 NE10      29.85R
FORSYTH          N/A     72  48  43 W7        29.85S
LAUREL           N/A     70  44  38 N13       29.91R
$$

REGIONAL REPORTS...DAKOTAS

CITY           SKY/WX    TMP DP  RH WIND       PRES   REMARKS
WILLISTON      SUNNY     74  57  55 NE10      29.87R
MINOT          CLOUDY    67  58  72 N14       29.86R
DICKINSON      SUNNY     80  63  55 NE14      29.81S
CROSBY         CLOUDY    64  54  68 NE10      29.91R
BISMARCK       SUNNY     87  66  49 N5        29.78S
GRAND FORKS    MOCLDY    74  68  81 N9        29.81S
FARGO          CLOUDY    77  72  84 E5        29.82S
BUFFALO SD       N/A     84  62  47 NE13      29.75R
RAPID CITY     MOSUNNY   86  63  45 N9        29.78S
$$

REGIONAL REPORTS...WYOMING/IDAHO/WASHINGTON

CITY           SKY/WX    TMP DP  RH WIND       PRES   REMARKS
GILLETTE       MOSUNNY   86  41  20 E12       29.82S
SHERIDAN       MOSUNNY   76  46  34 NW17      29.84R
BUFFALO WY     PTSUNNY   75  49  39 NW17G25   29.88R
CODY           MOSUNNY   63  48  59 N15       29.88R
YELLOWSTONE LA   N/A     61  38  42 SW5       30.02R
IDAHO FALLS    PTSUNNY   77  36  22 S6        29.75F
SALMON         PTSUNNY   50  46  87 NW3       29.88F
BOISE          MOSUNNY   70  38  31 NE7       29.70F
SPOKANE        MOSUNNY   69  29  22 E9        29.85S
$$

REGIONAL REPORTS...ALBERTA

CITY           SKY/WX    TMP DP  RH WIND       PRES   REMARKS
EDMONTON       CLOUDY    52  39  62 CALM      30.17S
CALGARY        LGT RAIN  43  39  87 N14G23    30.15R
LETHBRIDGE     LGT RAIN  50  46  87 NW13      30.06S
MEDICINE HAT   LGT RAIN  52  50  93 E8        30.06S FOG
WATERTON GATE    N/A     43  41  93 NE6         N/A
MILK RIVER       N/A     48  46  93 N12         N/A
ONEFOUR          N/A     52  50  93 E2          N/A
$$

REGIONAL REPORTS...SASKATCHEWAN

CITY           SKY/WX    TMP DP  RH WIND       PRES   REMARKS
SWIFT CURRENT  CLOUDY    50  46  87 NE10      30.08R
REGINA         PTSUNNY   59  46  63 N14G20    29.98S
SASKATOON      LGT RAIN  55  43  62 N8        30.11R
CYPRESS HILLS    N/A     46  45  93 E7          N/A
VAL MARIE        N/A     52  48  87 NE17G24     N/A
ROCKGLEN         N/A     54  46  76 N18G26      N/A
ASSINIBOIA       N/A     54  39  58 N6          N/A
$$


USA.gov is the U.S. government's official web portal to all federal, state and local government web resources and services.